K0CVS Weather Reports


time (UTC)temp
C
wind
direction
speed
KPH
gust
KPH
rain 1hr
cm
rain 24hr
cm
rain mn
cm
humidity
%
barometer
mb
20260505140211 8 202 0.0 1.6 0.00 0.20 0.20 91 1012.0
20260505130135 9 284 0.0 0.0 0.00 0.20 0.20 80 1012.4
20260505124625 9 209 0.0 1.6 0.00 0.20 0.20 77 1010.4
20260505124121 9 196 0.0 3.2 0.18 0.20 0.20 77 1010.2
20260505123617 9 246 1.6 1.6 0.18 0.20 0.20 80 1010.1
20260505123114 9 214 0.0 0.0 0.00 0.18 0.18 80 1009.9
20260505122611 9 231 0.0 0.0 0.00 0.18 0.18 78 1010.3
20260505122108 9 207 0.0 0.0 0.00 0.18 0.18 78 1010.1
20260505121604 9 204 0.0 0.0 0.00 0.18 0.18 80 1009.9
20260505121101 9 244 0.0 1.6 0.00 0.18 0.18 80 1010.3
20260505120557 8 262 0.0 1.6 0.00 0.18 0.18 79 1009.8
20260505120053 9 230 0.0 0.0 0.00 0.18 0.18 82 1009.8
20260505115548 9 257 0.0 0.0 0.00 0.18 0.18 80 1009.8
20260505115046 8 220 0.0 1.6 0.00 0.18 0.18 80 1009.6
20260505114543 9 245 0.0 0.0 0.00 0.18 0.18 83 1009.6
20260505114039 9 266 0.0 1.6 0.00 0.18 0.18 81 1009.7
20260505113535 9 193 1.6 1.6 0.00 0.18 0.18 77 1009.7
20260505113032 9 200 0.0 0.0 0.00 0.18 0.18 79 1009.7
20260505112528 10 12 0.0 3.2 0.00 0.18 0.18 76 1009.7
20260505112026 10 265 0.0 1.6 0.00 0.18 0.18 74 1009.5
20260505111520 10 294 0.0 1.6 0.00 0.18 0.18 73 1009.6
20260505111016 10 357 4.8 4.8 0.00 0.18 0.18 74 1009.7
20260505110513 10 222 0.0 1.6 0.13 0.18 0.18 74 1009.4
20260505101945 10 265 1.6 1.6 0.00 0.15 0.15 80 1009.5
20260505101443 10 40 1.6 3.2 0.00 0.15 0.15 80 1009.3
20260505100940 9 223 0.0 1.6 0.00 0.15 0.15 81 1009.5
20260505100437 9 349 1.6 1.6 0.00 0.15 0.15 82 1009.4
20260505095933 9 275 0.0 0.0 0.00 0.15 0.15 83 1009.6
20260505095430 9 248 0.0 0.0 0.00 0.15 0.15 82 1010.1
20260505094926 9 205 0.0 0.0 0.00 0.15 0.15 80 1009.9
20260505094423 9 221 0.0 0.0 0.18 0.15 0.15 80 1009.6
20260505093919 9 235 0.0 1.6 0.18 0.15 0.15 81 1009.5
20260505093416 9 7 1.6 3.2 0.00 0.13 0.13 82 1009.5
20260505092913 9 268 0.0 0.0 0.00 0.13 0.13 81 1009.4
20260505092411 9 219 0.0 0.0 0.00 0.13 0.13 81 1009.0
20260505091908 9 314 0.0 1.6 0.00 0.13 0.13 80 1009.1
20260505091406 9 276 0.0 3.2 0.00 0.13 0.13 80 1009.0
20260505090904 9 235 1.6 3.2 0.00 0.13 0.13 79 1008.6
20260505090403 9 289 3.2 4.8 0.00 0.13 0.13 79 1008.1
20260505085859 9 212 0.0 3.2 0.00 0.13 0.13 79 1008.0
20260505085357 9 228 3.2 9.7 0.00 0.13 0.13 79 1007.9
20260505084855 9 176 3.2 3.2 0.00 0.13 0.13 80 1007.6
20260505084353 9 156 0.0 4.8 0.00 0.13 0.13 82 1007.7
20260505083850 9 211 3.2 4.8 0.00 0.13 0.13 83 1007.6
20260505083347 9 224 0.0 6.4 0.00 0.13 0.13 84 1007.7
20260505082843 9 214 0.0 3.2 0.13 0.13 0.13 86 1007.4
20260505082339 9 128 1.6 3.2 0.00 0.10 0.10 87 1007.7
20260505081836 9 321 1.6 4.8 0.00 0.10 0.10 87 1007.4
20260505081333 9 198 3.2 3.2 0.00 0.10 0.10 87 1006.1
20260505080830 10 143 3.2 4.8 0.00 0.10 0.10 87 1007.5
20260505080326 10 211 0.0 0.0 0.00 0.10 0.10 85 1008.6
20260505075821 10 207 0.0 1.6 0.00 0.10 0.10 83 1008.8
20260505075319 10 219 0.0 0.0 0.00 0.10 0.10 82 1008.8
20260505074816 10 234 0.0 3.2 0.00 0.10 0.10 81 1009.1
20260505074313 10 263 0.0 3.2 0.00 0.10 0.10 81 1009.3
20260505073810 11 277 0.0 1.6 0.00 0.10 0.10 80 1009.5
20260505073308 11 231 0.0 0.0 0.00 0.10 0.10 78 1009.4
20260505072805 11 225 0.0 1.6 0.18 0.10 0.10 77 1010.1
20260505072301 11 209 0.0 0.0 0.18 0.10 0.10 75 1010.1
20260505071757 12 238 0.0 3.2 0.00 0.08 0.08 70 1009.6
20260505071253 12 264 0.0 1.6 0.00 0.08 0.08 70 1008.9
20260505070751 12 280 0.0 3.2 0.00 0.08 0.08 67 1008.8
20260505070247 12 224 0.0 0.0 0.00 0.08 0.08 66 1008.7
20260505065743 13 281 0.0 3.2 0.00 0.08 0.08 63 1008.3
20260505065240 13 252 1.6 3.2 0.00 0.08 0.08 62 1007.8
20260505064737 13 230 0.0 3.2 0.00 0.08 0.08 60 1007.8
20260505064235 13 253 0.0 3.2 0.00 0.08 0.08 58 1007.6
20260505063732 13 161 1.6 11.3 0.00 0.08 0.08 55 1007.4
20260505063228 14 231 0.0 4.8 0.00 0.08 0.08 59 1007.2
20260505062724 14 233 3.2 9.7 0.13 0.08 0.08 59 1006.5
20260505062223 14 206 1.6 6.4 0.13 0.08 0.08 63 1007.4
20260505061719 14 324 1.6 4.8 0.00 0.05 0.05 66 1007.1
20260505061217 14 152 1.6 6.4 0.00 0.05 0.05 68 1006.8
20260505060714 14 25 4.8 4.8 0.00 0.05 0.05 72 1006.1
20260505060211 14 261 0.0 3.2 0.00 0.05 0.05 70 1006.2
20260505055706 14 280 0.0 6.4 0.00 0.05 0.05 71 1005.9
20260505055203 14 8 1.6 3.2 0.00 0.05 0.05 77 1005.9
20260505054700 14 274 0.0 3.2 0.18 0.05 0.05 79 1005.7
20260505054158 13 229 0.0 0.0 0.18 0.05 0.05 82 1005.4
20260505053656 13 208 0.0 0.0 0.00 0.03 0.03 84 1005.5
20260505053152 13 208 1.6 1.6 0.00 0.03 0.03 85 1005.6
20260505052649 13 240 0.0 0.0 0.00 0.03 0.03 84 1005.6
20260505052146 13 29 1.6 1.6 0.13 0.03 0.03 82 1005.6
20260505051643 14 337 1.6 3.2 0.13 0.03 0.03 81 1005.5
20260505051142 15 209 0.0 3.2 0.00 0.00 0.00 79 1005.4
20260505050639 16 235 1.6 1.6 0.00 0.00 0.00 73 1005.5
20260505050137 18 222 1.6 1.6 0.00 0.00 0.00 64 1005.3
20260505041607 22 214 0.0 0.0 0.00 0.00 0.00 65 1004.2
20260505041104 22 311 0.0 0.0 0.00 0.00 0.00 65 1004.4
20260505040601 22 206 0.0 0.0 0.00 0.00 0.00 64 1004.2
20260505040058 22 211 0.0 1.6 0.00 0.00 0.00 64 1003.9
20260505035554 22 224 0.0 1.6 0.00 0.00 0.00 64 1003.7
20260505035051 22 210 0.0 4.8 0.00 0.00 0.00 64 1004.0
20260505034548 22 214 0.0 3.2 0.00 0.00 0.00 63 1004.0
20260505034044 22 170 1.6 1.6 0.00 0.00 0.00 62 1003.9
20260505033541 22 203 0.0 0.0 0.00 0.00 0.00 62 1004.1
20260505033040 22 198 0.0 3.2 0.00 0.00 0.00 61 1004.0
20260505032537 22 208 0.0 0.0 0.00 0.00 0.00 61 1003.9
20260505032033 22 245 0.0 3.2 0.00 0.00 0.00 60 1003.8
20260505031531 22 262 0.0 1.6 0.00 0.00 0.00 60 1003.8
20260505031027 22 192 1.6 1.6 0.00 0.00 0.00 60 1003.7
20260505030524 22 211 0.0 0.0 0.00 0.00 0.00 59 1003.5
20260505030020 22 198 0.0 1.6 0.00 0.00 0.00 59 1003.5
20260505025516 21 202 0.0 1.6 0.00 0.00 0.00 58 1003.5
20260505025016 21 212 0.0 0.0 0.00 0.00 0.00 58 1003.6
20260505024512 21 218 0.0 0.0 0.00 0.00 0.00 58 1003.3
20260505024009 21 231 0.0 0.0 0.00 0.00 0.00 58 1003.2
20260505023506 21 228 0.0 0.0 0.00 0.00 0.00 57 1003.2
20260505023003 22 227 0.0 0.0 0.00 0.00 0.00 57 1003.2
20260505022501 22 228 0.0 0.0 0.00 0.00 0.00 57 1003.3
20260505021958 22 231 0.0 0.0 0.00 0.00 0.00 56 1003.1
20260505021454 22 214 0.0 0.0 0.00 0.00 0.00 56 1002.9
20260505020950 22 219 0.0 0.0 0.00 0.00 0.00 56 1002.9
20260505020445 22 223 0.0 0.0 0.00 0.00 0.00 56 1002.8
20260505015942 22 223 0.0 0.0 0.00 0.00 0.00 55 1002.7
20260505015440 22 225 0.0 0.0 0.00 0.00 0.00 54 1002.8
20260505014937 22 224 0.0 0.0 0.00 0.00 0.00 55 1002.5
20260505014433 23 222 0.0 0.0 0.00 0.00 0.00 54 1002.4
20260505013931 23 218 0.0 0.0 0.00 0.00 0.00 54 1002.6
20260505013428 23 218 0.0 1.6 0.00 0.00 0.00 53 1002.4
20260505012925 23 193 0.0 1.6 0.00 0.00 0.00 53 1002.5
20260505012423 23 226 0.0 0.0 0.00 0.00 0.00 52 1002.4
20260505011919 23 210 0.0 0.0 0.00 0.00 0.00 52 1002.1
20260505011416 24 198 0.0 0.0 0.00 0.00 0.00 51 1002.4
20260505010913 24 217 0.0 0.0 0.00 0.00 0.00 50 1002.2
20260505010408 25 223 0.0 0.0 0.00 0.00 0.00 49 1002.0
20260505005904 25 220 0.0 0.0 0.00 0.00 0.00 48 1002.0
20260505005401 25 217 0.0 0.0 0.00 0.00 0.00 48 1002.0
20260505004859 25 220 0.0 0.0 0.00 0.00 0.00 47 1001.9
20260505004355 25 220 0.0 0.0 0.00 0.00 0.00 47 1001.9
20260505003852 26 218 0.0 0.0 0.00 0.00 0.00 47 1001.9
20260505003350 26 228 0.0 0.0 0.00 0.00 0.00 46 1001.9
20260505002845 26 214 0.0 0.0 0.00 0.00 0.00 45 1001.8
20260505002342 26 243 0.0 0.0 0.00 0.00 0.00 45 1001.7
20260505001841 26 194 0.0 0.0 0.00 0.00 0.00 45 1001.7
20260505001338 26 265 0.0 0.0 0.00 0.00 0.00 45 1001.8
20260505000835 26 234 0.0 0.0 0.00 0.00 0.00 45 1001.9
20260505000333 26 230 0.0 0.0 0.00 0.00 0.00 44 1002.0
20260504235829 26 244 0.0 0.0 0.00 0.00 0.00 44 1001.6
20260504235326 26 189 0.0 1.6 0.00 0.00 0.00 44 1001.9
20260504234823 26 216 0.0 1.6 0.00 0.00 0.00 43 1001.9
20260504234320 26 194 0.0 0.0 0.00 0.00 0.00 43 1001.9
20260504233816 26 195 0.0 0.0 0.00 0.00 0.00 43 1001.8
20260504233312 26 159 3.2 3.2 0.00 0.00 0.00 41 1002.0
20260504232809 26 187 0.0 1.6 0.00 0.00 0.00 41 1001.8
20260504232307 26 267 0.0 1.6 0.00 0.00 0.00 42 1002.0
20260504231803 27 215 1.6 1.6 0.00 0.00 0.00 41 1001.9
20260504231300 27 225 0.0 3.2 0.00 0.00 0.00 41 1001.8
20260504230756 27 191 0.0 3.2 0.00 0.00 0.00 41 1001.8
20260504230254 27 168 0.0 1.6 0.00 0.00 0.00 41 1001.8
20260504225753 27 193 0.0 1.6 0.00 0.00 0.00 40 1001.8
20260504225248 27 285 1.6 1.6 0.00 0.00 0.00 40 1001.9
20260504224746 27 229 0.0 0.0 0.00 0.00 0.00 40 1002.0
20260504224243 27 358 0.0 1.6 0.00 0.00 0.00 39 1002.0
20260504223739 27 188 1.6 3.2 0.00 0.00 0.00 40 1002.0
20260504223235 27 211 0.0 1.6 0.00 0.00 0.00 41 1001.7
20260504222732 26 216 0.0 1.6 0.00 0.00 0.00 41 1002.0
20260504222229 26 235 0.0 1.6 0.00 0.00 0.00 42 1001.9
20260504221726 26 180 1.6 4.8 0.00 0.00 0.00 42 1002.1
20260504221223 26 183 1.6 3.2 0.00 0.00 0.00 41 1002.0
20260504220720 26 251 0.0 3.2 0.00 0.00 0.00 41 1002.1
20260504220217 26 43 1.6 3.2 0.00 0.00 0.00 42 1002.1
20260504215714 26 289 1.6 3.2 0.00 0.00 0.00 43 1002.0
20260504215211 26 269 0.0 1.6 0.00 0.00 0.00 42 1002.3
20260504214707 27 158 0.0 1.6 0.00 0.00 0.00 43 1002.3
20260504214203 27 199 0.0 3.2 0.00 0.00 0.00 43 1002.1
20260504213700 27 251 0.0 1.6 0.00 0.00 0.00 43 1002.5
20260504213157 27 205 1.6 3.2 0.00 0.00 0.00 43 1002.1
20260504212653 27 282 1.6 3.2 0.00 0.00 0.00 42 1002.4
20260504212150 27 242 1.6 3.2 0.00 0.00 0.00 42 1002.4
20260504211647 27 244 3.2 4.8 0.00 0.00 0.00 41 1002.4
20260504211144 27 326 3.2 6.4 0.00 0.00 0.00 40 1002.2
20260504210642 28 5 3.2 4.8 0.00 0.00 0.00 40 1002.3
20260504210138 28 152 3.2 6.4 0.00 0.00 0.00 39 1002.3
20260504205635 28 236 1.6 3.2 0.00 0.00 0.00 39 1002.4
20260504205132 28 226 0.0 1.6 0.00 0.00 0.00 39 1002.3
20260504204631 28 192 3.2 4.8 0.00 0.00 0.00 38 1002.4
20260504204130 28 290 1.6 1.6 0.00 0.00 0.00 39 1002.5
20260504203628 29 213 1.6 3.2 0.00 0.00 0.00 39 1002.5
20260504203126 28 160 0.0 1.6 0.00 0.00 0.00 41 1002.6
20260504202625 29 36 1.6 4.8 0.00 0.00 0.00 40 1002.5
20260504202123 28 170 1.6 4.8 0.00 0.00 0.00 38 1002.5
20260504201619 28 268 1.6 4.8 0.00 0.00 0.00 39 1002.4
20260504201117 29 177 3.2 6.4 0.00 0.00 0.00 40 1002.6
20260504200614 28 198 0.0 3.2 0.00 0.00 0.00 40 1002.6
20260504200110 28 220 4.8 6.4 0.00 0.00 0.00 39 1002.7
20260504195607 28 201 1.6 3.2 0.00 0.00 0.00 39 1002.6
20260504195103 28 228 6.4 11.3 0.00 0.00 0.00 37 1002.7
20260504194600 28 295 3.2 4.8 0.00 0.00 0.00 38 1002.8
20260504194055 28 228 1.6 3.2 0.00 0.00 0.00 37 1002.7
20260504193552 28 223 3.2 4.8 0.00 0.00 0.00 39 1002.8
20260504193051 28 312 1.6 6.4 0.00 0.00 0.00 39 1002.7
20260504192549 28 197 0.0 3.2 0.00 0.00 0.00 39 1002.8
20260504192046 28 254 0.0 3.2 0.00 0.00 0.00 38 1002.9
20260504191544 28 214 1.6 3.2 0.00 0.00 0.00 40 1002.8
20260504191040 28 281 1.6 4.8 0.00 0.00 0.00 38 1002.9
20260504190537 28 237 1.6 4.8 0.00 0.00 0.00 38 1003.0
20260504190032 28 224 3.2 3.2 0.00 0.00 0.00 39 1003.0
20260504185530 27 160 4.8 6.4 0.00 0.00 0.00 39 1003.0
20260504185026 27 238 1.6 6.4 0.00 0.00 0.00 40 1003.3
20260504184521 27 2 0.0 4.8 0.00 0.00 0.00 40 1002.9
20260504184017 27 246 1.6 3.2 0.00 0.00 0.00 41 1002.9
20260504183515 27 197 1.6 6.4 0.00 0.00 0.00 39 1003.1
20260504183013 27 136 0.0 6.4 0.00 0.00 0.00 40 1003.1
20260504182509 27 186 4.8 6.4 0.00 0.00 0.00 39 1003.2
20260504182007 27 242 1.6 3.2 0.00 0.00 0.00 41 1003.2
20260504181503 26 262 1.6 3.2 0.00 0.00 0.00 41 1003.2
20260504181002 26 70 1.6 6.4 0.00 0.00 0.00 40 1003.5
20260504180501 26 286 1.6 4.8 0.00 0.00 0.00 41 1003.3
20260504175959 26 323 3.2 3.2 0.00 0.00 0.00 41 1003.5
20260504175455 26 280 6.4 11.3 0.00 0.00 0.00 42 1003.5
20260504174953 26 197 1.6 3.2 0.00 0.00 0.00 39 1003.5
20260504174450 26 170 0.0 1.6 0.00 0.00 0.00 41 1003.6
20260504173947 26 39 0.0 1.6 0.00 0.00 0.00 41 1003.5
20260504173443 26 259 1.6 3.2 0.00 0.00 0.00 41 1003.6
20260504172942 25 196 1.6 6.4 0.00 0.00 0.00 45 1003.6
20260504172437 25 195 1.6 1.6 0.00 0.00 0.00 46 1003.9
20260504171934 26 236 3.2 6.4 0.00 0.00 0.00 44 1003.9
20260504171431 25 141 1.6 3.2 0.00 0.00 0.00 44 1003.8
20260504170928 25 258 3.2 4.8 0.00 0.00 0.00 43 1004.0
20260504170424 25 253 0.0 1.6 0.00 0.00 0.00 43 1003.8
20260504160343 23 317 3.2 4.8 0.00 0.00 0.00 45 1003.9
20260504150808 21 275 1.6 6.4 0.00 0.00 0.00 49 1004.1
20260504150304 21 322 3.2 9.7 0.00 0.00 0.00 50 1004.2